カタログに戻る

YAOGAN 11

運用中軍事SSO
NORAD 37165·PAYLOAD·🇨🇳 China

打ち上げ Sep 22, 2010 から Jiuquan Satellite Launch Center

Loading…

次のパス (今後24時間)

TLE

最新Source: Space-Track

元期: Sep 14, 2026, 21:45 UTC

1 37165U 10047A   26257.90650190  .00000564  00000-0  77589-4 0  9991
2 37165  98.3706 128.1842 0033772 315.5994  44.2510 14.82195554861387

AllMySatでYAOGAN 11をリアルタイム追跡

Download on the App Store